SCP
0 0 0 0 0 0 0 0 0 0 0 0 0 0 0 0 0 0 0 0 0 0 0 0 0 0 0 0 0 0 0 0 0 0 0 0 0 0 0 0 0 0 0
0 0 0 0 0 0 0 0 0 0 0 0 0 0 0 0 0 0 0 0 0 0 0 0 0 0 0 0 0 0 0 0 0 0 0 0 0 0 0 0 0 0 0
0 0 0 0 0 0 0 0 0 0 0 0 0 0 0 0 0 0 0 0 0 0 0 0 0 0 0 0 0 0 0 0 0 0 0 0 0 0 0 0 0 0 0
0 0 0 0 0 0 0 0 0 0 0 0 0 0 0 0 0 0 0 0 0 0 0 0 0 0 0 0 0 0 0 0 0 0 0 0 0 0 0 0 0 0 0
0 0 0 0 0 0 0 0 0 0 0 0 0 0 0 0 0 0 0 0 0 0 0 0 0 0 0 0 0 0 0 0 0 0 0 0 0 0 0 0 0 0 0
0 0 0 0 0 0 0 0 0 0 0 0 0 0 0 0 0 0 0 0 0 0 0 0 0 0 0 0 0 0 0 0 0 0 0 0 0 0 0 0 0 0 0
0 0 0 0 0 0 0 0 0 0 0 0 0 0 0 0 0 0 0 0 0 0 0 0 0 0 0 0 0 0 0 0 0 0 0 0 0 0 0 0 0 0 0
0 0 0 0 0 0 0 0 0 0 0 0 0 0 0 0 0 0 0 0 0 0 0 0 0 0 0 0 0 0 0 0 0 0 0 0 0 0 0 0 0 0 0
0 0 0 0 0 0 0 0 0 0 0 0 0 0 0 0 0 0 0 0 0 0 0 0 0 0 0 0 0 0 0 0 0 0 0 0 0 0 0 0 0 0 0
0 0 0 0 0 0 0 0 0 0 0 0 0 0 0 0 0 0 0 0 0 0 0 0 0 0 0 0 0 0 0 0 0 0 0 0 0 0 0 0 0 0 0
0 0 0 0 0 0 0 0 0 0 0 0 0 0 0 0 0 0 0 0 0 0 0 0 0 0 0 0 0 0 0 0 0 0 0 0 0 0 0 0 0 0 0
0 0 0 0 0 0 0 0 0 0 0 0 0 0 0 0 0 0 0 0 0 0 0 0 0 0 0 0 0 0 0 0 0 0 0 0 0 0 0 0 0 0 0
0 0 0 0 0 0 0 0 0 0 0 0 0 0 0 0 0 0 0 0 0 0 0 0 0 0 0 0 0 0 0 0 0 0 0 0 0 0 0 0 0 0 0
0 0 0 0 0 0 0 0 0 0 0 0 0 0 0 0 0 0 0 0 0 0 0 0 0 0 0 0 0 0 0 0 0 0 0 0 0 0 0 0 0 0 0
0 0 0 0 0 0 0 0 0 0 0 0 0 0 0 0 0 0 0 0 0 0 0 0 0 0 0 0 0 0 0 0 0 0 0 0 0 0 0 0 0 0 0
0 0 0 0 0 0 0 0 0 0 0 0 0 0 0 0 0 0 0 0 0 0 0 0 0 0 0 0 0 0 0 0 0 0 0 0 0 0 0 0 0 0 0
0 0 0 0 0 0 0 0 0 0 0 0 0 0 0 0 0 0 0 0 0 0 0 0 0 0 0 0 0 0 0 0 0 0 0 0 0 0 0 0 0 0 0
0 0 0 0 0 0 0 0 0 0 0 0 0 0 0 0 0 0 0 0 0 0 0 0 0 0 0 0 0 0 0 0 0 0 0 0 0 0 0 0 0 0 0
0 0 0 0 0 0 0 0 0 0 0 0 0 0 0 0 0 0 0 0 0 0 0 0 0 0 0 0 0 0 0 0 0 0 0 0 0 0 0 0 0 0 0
0 0 0 0 0 0 0 0 0 0 0 0 0 0 0 0 0 0 0 0 0 0 0 0 0 0 0 0 0 0 0 0 0 0 0 0 0 0 0 0 0 0 0
0 0 0 0 0 0 0 0 0 0 0 0 0 0 0 0 0 0 0 0 0 0 0 0 0 0 0 0 0 0 0 0 0 0 0 0 0 0 0 0 0 0 0
0 0 0 0 0 0 0 0 0 0 0 0 0 0 0 0 0 0 0 0 0 0 0 0 0 0 0 0 0 0 0 0 0 0 0 0 0 0 0 0 0 0 0
0 0 0 0 0 0 0 0 0 0 0 0 0 0 0 0 0 0 0 0 0 0 0 0 0 0 0 0 0 0 0 0 0 0 0 0 0 0 0 0 0 0 0
0 0 0 0 0 0 0 0 0 0 0 0 0 0 0 0 0 0 0 0 0 0 0 0 0 0 0 0 0 0 0 0 0 0 0 0 0 0 0 0 0 0 0
0 0 0 0 0 0 0 0 0 0 0 0 0 0 0 0 0 0 0 0 0 0 0 0 0 0 0 0 0 0 0 0 0 0 0 0 0 0 0 0 0 0 0
0 0 0 0 0 0 0 0 0 0 0 0 0 0 0 0 0 0 0 0 0 0 0 0 0 0 0 0 0 0 0 0 0 0 0 0 0 0 0 0 0 0 0
Wind_Speed
9 12 11 11 11 10 10 11 11 11 12 12 13 13 14 15 15 15 16 16 16 16 17 16 16 16 16 15 15 14 14 12 12 13 15 17 18 18 18 18 14 11 16
12 13 11 11 11 10 10 9 10 10 11 11 12 13 14 15 15 15 15 15 16 16 16 16 16 15 15 14 13 13 12 11 9 7 9 14 17 17 18 18 16 12 16
12 13 10 10 11 10 9 8 8 9 10 11 12 13 13 14 14 15 15 15 15 16 16 16 15 15 14 14 13 12 11 10 11 10 6 6 11 16 17 17 17 17 17
11 12 10 10 11 10 9 8 8 8 9 10 11 12 12 13 14 14 14 15 15 15 15 15 15 14 13 13 12 11 10 11 12 12 6 9 8 14 16 16 16 16 16
8 10 11 10 10 10 8 8 7 8 9 10 10 11 12 12 13 13 14 14 15 15 15 15 15 14 13 13 12 11 11 11 12 8 7 9 7 13 14 14 15 15 15
6 9 11 9 9 9 9 8 8 8 8 8 9 10 11 11 11 12 13 14 15 15 15 15 15 14 14 13 12 12 12 13 9 6 9 10 7 12 13 13 13 13 13
6 8 9 6 6 8 8 8 8 7 8 8 8 8 10 10 10 11 12 13 14 14 15 15 15 14 14 14 13 13 14 14 8 7 9 9 8 12 13 13 12 12 12
8 7 6 5 3 4 6 7 8 8 7 7 7 7 8 9 10 11 11 12 13 13 14 14 14 14 14 13 13 13 13 12 8 8 10 9 12 12 12 12 12 12 11
7 6 5 3 1 3 4 5 6 7 7 7 7 7 7 8 8 9 10 11 12 12 12 12 13 13 13 13 12 12 12 13 8 7 10 7 13 13 12 12 11 11 11
6 6 4 3 2 0 3 5 5 5 6 6 6 6 7 7 8 9 9 10 11 11 11 11 11 11 12 12 11 10 11 9 8 8 6 8 14 14 13 12 11 10 10
6 5 4 4 3 3 1 4 6 5 5 5 6 7 6 4 6 6 8 9 10 10 9 9 8 7 7 8 8 8 7 4 5 5 5 10 13 13 13 12 11 10 9
5 5 4 4 3 3 2 1 3 4 4 3 3 5 4 3 4 6 9 9 9 8 8 7 5 3 2 3 4 5 3 5 4 4 4 11 11 12 12 12 12 11 9
5 6 6 5 3 2 1 1 1 2 2 2 3 2 2 3 4 5 4 4 4 5 3 3 2 3 4 3 3 3 4 4 3 3 4 8 10 10 10 11 11 11 10
6 6 6 6 2 0 1 2 3 3 3 4 5 5 3 3 4 4 3 3 3 2 3 2 2 4 4 4 4 4 4 3 2 2 2 5 8 10 10 10 10 11 11
6 6 6 6 3 2 3 3 5 5 6 6 6 6 6 5 5 5 5 5 5 4 4 4 4 4 4 4 4 4 4 3 3 3 1 2 5 9 11 11 11 12 11
6 6 6 7 5 6 6 6 6 7 7 7 7 8 8 7 6 6 7 6 5 4 4 4 4 4 3 3 3 3 3 4 3 4 3 3 4 7 11 12 13 13 13
5 5 5 6 7 9 9 9 8 7 8 8 7 9 10 9 8 8 7 7 5 5 5 4 4 4 4 4 4 3 2 3 4 5 5 4 5 7 11 13 15 14 14
5 5 5 6 8 10 10 9 8 8 8 8 7 8 10 10 9 8 7 6 5 5 5 5 4 4 4 4 4 3 3 2 4 5 5 6 5 6 8 15 16 16 16
5 5 6 7 8 9 10 9 9 9 9 7 7 7 8 9 9 8 7 6 6 5 5 4 5 4 5 5 4 3 2 3 4 5 6 7 6 6 6 11 16 16 18
5 5 6 6 7 8 8 8 8 9 8 7 7 8 9 8 9 8 7 8 7 6 6 5 5 5 5 5 4 3 2 4 4 5 5 5 6 7 7 7 7 10 18
5 5 5 6 6 5 5 5 6 6 6 7 8 9 9 9 9 8 7 7 7 7 8 8 5 6 7 6 4 4 3 4 6 4 4 5 7 7 7 7 6 6 7
5 5 5 5 5 6 6 5 5 6 7 6 6 8 9 9 9 9 8 7 7 7 9 9 7 5 6 8 5 3 4 4 6 3 4 5 6 5 6 7 7 8 7
6 5 5 5 7 8 8 7 8 6 5 6 6 6 7 8 8 9 9 8 7 7 7 8 7 8 5 6 7 5 4 3 4 4 4 5 7 6 5 6 7 8 8
6 5 5 6 7 7 7 7 8 7 6 5 5 5 7 8 8 8 8 8 7 6 7 7 7 6 6 5 4 4 3 1 2 5 5 5 7 7 6 7 7 7 6
7 6 6 6 6 6 7 8 10 9 8 7 6 7 7 6 7 8 7 7 7 6 6 7 7 7 5 4 4 3 3 3 3 2 5 6 6 5 6 7 6 6 5
7 6 6 7 6 7 8 8 9 11 11 10 7 7 5 4 5 7 7 6 6 5 6 6 6 6 5 5 4 3 3 3 3 3 4 7 7 5 8 6 6 5 5
Wind_Direction
118 125 133 128 120 113 108 106 106 105 105 104 101 98 92 86 80 75 71 68 65 62 57 53 48 44 43 44 46 48 49 48 52 61 65 60 54 52 49 45 47 48 51
123 128 135 131 125 119 113 109 108 109 109 107 103 100 94 89 83 77 73 68 65 62 58 53 48 43 39 39 40 43 40 29 20 29 64 65 57 52 50 48 47 47 49
118 128 137 132 128 122 118 113 112 112 112 109 106 102 97 92 86 81 75 70 66 62 57 53 48 43 39 37 37 38 30 12 358 353 15 81 61 53 51 48 46 45 45
119 133 140 134 130 126 124 121 118 115 113 111 109 106 100 95 89 84 79 73 68 63 58 53 50 46 42 40 38 35 23 2 349 344 42 71 61 54 51 48 45 43 42
114 128 129 139 135 132 132 129 124 121 118 116 114 113 108 101 96 91 85 79 72 65 59 55 52 48 45 44 42 36 19 359 342 345 48 65 57 51 49 47 45 43 41
106 116 128 141 141 143 142 138 133 128 124 121 121 121 117 110 105 99 92 86 79 71 64 58 55 51 48 47 44 35 18 360 351 30 55 53 45 44 46 43 41 41 40
77 95 127 128 138 149 150 146 143 140 133 131 128 127 125 120 115 107 99 92 84 76 69 63 57 54 52 49 43 32 20 4 11 47 57 46 31 41 44 39 37 37 39
56 61 95 99 107 143 151 154 154 151 147 146 142 137 136 132 127 118 110 102 93 84 76 68 62 58 55 50 43 32 21 12 15 44 57 36 21 33 41 39 36 35 36
57 53 51 66 144 163 171 167 162 162 160 158 155 149 144 141 137 128 121 114 104 94 84 75 68 64 58 52 44 32 17 13 25 42 51 30 20 26 32 34 32 32 32
57 50 42 25 11 207 185 184 174 172 170 167 165 162 161 157 147 141 133 127 117 106 96 86 77 73 66 57 46 30 19 23 32 48 44 21 19 20 23 25 25 26 28
71 49 30 10 1 344 301 168 173 175 179 177 177 181 177 177 160 150 144 137 129 120 108 96 88 88 85 68 48 31 27 25 42 60 46 21 20 17 16 15 15 17 20
54 52 25 6 356 334 326 158 175 170 168 183 175 176 189 172 139 136 137 140 134 127 116 103 92 83 63 65 51 38 24 29 38 63 50 30 22 16 14 11 8 6 9
35 42 18 359 336 319 321 331 74 98 101 81 56 86 111 103 108 113 125 130 126 129 114 110 86 52 54 45 45 44 30 36 34 48 57 33 21 15 13 10 7 5 2
39 28 10 343 325 323 14 31 55 71 69 58 42 40 61 80 85 94 94 96 91 81 79 74 63 61 60 52 47 40 35 38 35 36 79 43 22 12 9 7 5 2 2
40 25 3 345 352 82 78 60 62 63 66 59 45 38 47 66 72 73 71 66 59 53 53 47 44 45 47 43 35 30 16 18 21 18 53 57 31 18 11 7 4 359 355
46 26 10 9 33 71 75 71 64 65 65 60 50 43 48 60 69 72 67 59 53 48 54 52 47 40 37 29 16 17 3 1 3 2 9 20 27 27 18 12 7 0 355
57 40 31 32 52 71 72 72 68 65 67 62 54 48 51 58 67 71 68 59 47 42 49 48 38 36 28 14 356 354 354 358 4 7 12 19 21 26 19 17 9 3 357
73 63 55 63 70 75 77 75 73 68 68 63 57 55 56 61 67 71 70 63 53 48 47 47 34 30 22 8 348 342 345 3 21 24 24 30 27 21 13 16 11 5 1
92 91 83 82 85 87 86 83 78 71 66 61 56 55 55 60 66 71 67 60 54 51 45 47 45 36 15 354 331 321 347 38 39 36 41 41 33 25 18 14 11 3 359
112 113 109 107 106 104 98 92 83 72 65 60 55 53 53 56 59 66 66 57 52 51 41 36 47 42 17 344 326 334 39 73 57 50 48 45 37 27 18 16 9 359 356
130 129 130 128 130 124 113 100 91 80 72 65 58 52 52 55 57 61 64 58 54 52 43 33 35 43 23 359 7 3 34 71 60 61 56 47 35 22 14 12 3 356 346
136 130 129 125 111 92 89 90 93 100 86 77 64 55 51 52 56 65 62 60 56 56 47 36 33 40 38 26 21 17 6 2 16 24 53 51 33 15 8 3 356 350 340
135 131 123 114 106 106 109 109 111 102 93 76 63 59 49 55 60 64 63 64 58 57 54 42 34 45 44 27 34 46 50 353 323 335 18 39 22 6 353 347 344 336 333
133 124 117 112 112 122 130 132 129 118 112 103 99 85 65 56 60 62 64 64 62 57 55 49 41 40 51 36 18 26 53 14 1 323 324 2 3 348 339 336 326 317 320
135 130 122 116 116 117 112 111 111 111 112 112 106 95 81 65 61 63 64 66 64 59 57 53 46 43 45 50 38 14 5 2 36 321 306 326 330 325 325 316 305 300 301
135 133 129 124 118 114 112 112 121 126 128 126 121 112 98 85 72 68 69 67 67 63 57 54 53 50 43 43 40 36 28 7 356 340 309 315 314 311 308 300 304 309 306